JST520 YMML-YSSY

Flight info

Callsign JST520
Flight time 1h 25m
Altitude 37000
Route ML H129 DOSEL Y59 RIVET
Aircraft A21N/M-SDE2E3FGHIRWXY/LB1

Departure

Time 2026-04-26 06:03
Airport Melbourne Airport (YMML)

Arrival

Time 2026-04-26 07:29
Airport Sydney Kingsford Smith International Airport (YSSY)
Time Latitude Longitude Altitude Speed Heading
2026-04-26 05:40 -37.67273 144.84464 442 ft 0 kts 171°
2026-04-26 05:50 -37.67258 144.84462 442 ft 2 kts 172°
2026-04-26 05:50 -37.67244 144.84459 442 ft 2 kts 171°
2026-04-26 05:51 -37.67229 144.84459 442 ft 2 kts 209°
2026-04-26 05:51 -37.67218 144.84473 442 ft 2 kts 245°
2026-04-26 05:51 -37.67215 144.84491 442 ft 2 kts 268°
2026-04-26 05:51 -37.67213 144.84509 442 ft 2 kts 258°
2026-04-26 05:52 -37.67210 144.84528 442 ft 1 kts 262°
2026-04-26 05:52 -37.67210 144.84531 442 ft 0 kts 262°
2026-04-26 05:55 -37.67211 144.84520 442 ft 2 kts 268°
2026-04-26 05:55 -37.67208 144.84491 442 ft 4 kts 279°
2026-04-26 05:55 -37.67201 144.84438 442 ft 7 kts 277°
2026-04-26 05:56 -37.67203 144.84354 442 ft 10 kts 264°
2026-04-26 05:56 -37.67211 144.84251 442 ft 12 kts 263°
2026-04-26 05:56 -37.67224 144.84132 442 ft 14 kts 256°
2026-04-26 05:56 -37.67303 144.84084 442 ft 14 kts 175°
2026-04-26 05:57 -37.67403 144.84099 442 ft 14 kts 171°
2026-04-26 05:57 -37.67508 144.84119 442 ft 15 kts 172°
2026-04-26 05:57 -37.67615 144.84140 442 ft 15 kts 171°
2026-04-26 05:57 -37.67724 144.84158 442 ft 16 kts 171°
2026-04-26 05:58 -37.67796 144.84172 442 ft 2 kts 171°
2026-04-26 05:58 -37.67820 144.84177 442 ft 2 kts 172°
2026-04-26 05:59 -37.67828 144.84178 442 ft 3 kts 177°
2026-04-26 05:59 -37.67856 144.84163 442 ft 5 kts 230°
2026-04-26 05:59 -37.67870 144.84134 442 ft 0 kts 254°
2026-04-26 06:02 -37.67871 144.84125 442 ft 1 kts 256°
2026-04-26 06:02 -37.67876 144.84090 442 ft 6 kts 261°
2026-04-26 06:02 -37.67876 144.84016 442 ft 10 kts 287°
2026-04-26 06:02 -37.67822 144.83960 442 ft 10 kts 347°
2026-04-26 06:03 -37.67696 144.83936 442 ft 45 kts 352°
2026-04-26 06:03 -37.67113 144.83827 443 ft 121 kts 352°
2026-04-26 06:03 -37.66090 144.83641 609 ft 165 kts 352°
2026-04-26 06:03 -37.64963 144.83420 1374 ft 165 kts 350°
2026-04-26 06:04 -37.63881 144.83194 2273 ft 160 kts 350°
2026-04-26 06:04 -37.62748 144.82959 2904 ft 173 kts 350°
2026-04-26 06:04 -37.61503 144.82709 3456 ft 193 kts 350°
2026-04-26 06:04 -37.60117 144.82449 4039 ft 214 kts 354°
2026-04-26 06:05 -37.58567 144.82636 4684 ft 235 kts 14°
2026-04-26 06:05 -37.57009 144.83470 5349 ft 255 kts 22°
2026-04-26 06:05 -37.55385 144.84468 6161 ft 266 kts 23°
2026-04-26 06:05 -37.53731 144.85496 7117 ft 270 kts 22°
2026-04-26 06:06 -37.52054 144.86530 8080 ft 273 kts 22°
2026-04-26 06:06 -37.50343 144.87575 9010 ft 276 kts 22°
2026-04-26 06:06 -37.48617 144.88623 9912 ft 279 kts 22°
2026-04-26 06:06 -37.46855 144.89691 10684 ft 287 kts 22°
2026-04-26 06:07 -37.45040 144.90871 11164 ft 306 kts 28°
2026-04-26 06:07 -37.43300 144.92581 11602 ft 329 kts 40°
2026-04-26 06:07 -37.41806 144.94833 12266 ft 341 kts 50°
2026-04-26 06:07 -37.40423 144.97272 13113 ft 344 kts 50°
2026-04-26 06:08 -37.39056 144.99728 13965 ft 346 kts 50°
2026-04-26 06:08 -37.37680 145.02188 14741 ft 350 kts 50°
2026-04-26 06:08 -37.36264 145.04712 15498 ft 354 kts 50°
2026-04-26 06:08 -37.34849 145.07219 16242 ft 357 kts 50°
2026-04-26 06:09 -37.33408 145.09772 16996 ft 360 kts 50°
2026-04-26 06:09 -37.31971 145.12314 17716 ft 362 kts 50°
2026-04-26 06:09 -37.30503 145.14900 18396 ft 366 kts 50°
2026-04-26 06:09 -37.29031 145.17491 19009 ft 371 kts 50°
2026-04-26 06:10 -37.27515 145.20155 19628 ft 376 kts 50°
2026-04-26 06:10 -37.26001 145.22819 20207 ft 381 kts 50°
2026-04-26 06:10 -37.24448 145.25552 20796 ft 385 kts 51°
2026-04-26 06:10 -37.22897 145.28278 21355 ft 390 kts 51°
2026-04-26 06:11 -37.21327 145.31035 21901 ft 394 kts 51°
2026-04-26 06:11 -37.19717 145.33861 22452 ft 398 kts 51°
2026-04-26 06:11 -37.18100 145.36691 22984 ft 403 kts 51°
2026-04-26 06:11 -37.16466 145.39551 23513 ft 407 kts 52°
2026-04-26 06:12 -37.14806 145.42454 24056 ft 411 kts 51°
2026-04-26 06:12 -37.13160 145.45332 24568 ft 414 kts 51°
2026-04-26 06:12 -37.11462 145.48294 25074 ft 418 kts 52°
2026-04-26 06:12 -37.09758 145.51262 25557 ft 421 kts 52°
2026-04-26 06:13 -37.08063 145.54219 26031 ft 424 kts 52°
2026-04-26 06:13 -37.06330 145.57237 26490 ft 427 kts 52°
2026-04-26 06:13 -37.04592 145.60259 26922 ft 430 kts 52°
2026-04-26 06:13 -37.02854 145.63277 27341 ft 433 kts 52°
2026-04-26 06:14 -37.01096 145.66328 27731 ft 436 kts 51°
2026-04-26 06:14 -36.99298 145.69446 28123 ft 439 kts 51°
2026-04-26 06:14 -36.97515 145.72536 28502 ft 442 kts 51°
2026-04-26 06:14 -36.95713 145.75658 28873 ft 445 kts 51°
2026-04-26 06:15 -36.93898 145.78793 29243 ft 447 kts 51°
2026-04-26 06:15 -36.92079 145.81931 29604 ft 449 kts 51°
2026-04-26 06:15 -36.90257 145.85075 29969 ft 451 kts 51°
2026-04-26 06:15 -36.88405 145.88269 30330 ft 453 kts 51°
2026-04-26 06:16 -36.86563 145.91440 30773 ft 452 kts 51°
2026-04-26 06:16 -36.84717 145.94621 31282 ft 451 kts 51°
2026-04-26 06:16 -36.82896 145.97749 31762 ft 449 kts 51°
2026-04-26 06:16 -36.81061 146.00899 32233 ft 447 kts 51°
2026-04-26 06:17 -36.79244 146.04019 32671 ft 446 kts 51°
2026-04-26 06:17 -36.77427 146.07135 33074 ft 445 kts 51°
2026-04-26 06:17 -36.75607 146.10251 33481 ft 444 kts 51°
2026-04-26 06:17 -36.73813 146.13319 33862 ft 444 kts 51°
2026-04-26 06:18 -36.71989 146.16435 34256 ft 443 kts 51°
2026-04-26 06:18 -36.70191 146.19504 34660 ft 441 kts 51°
2026-04-26 06:18 -36.68378 146.22595 35061 ft 440 kts 51°
2026-04-26 06:18 -36.66588 146.25645 35433 ft 439 kts 51°
2026-04-26 06:19 -36.64797 146.28694 35711 ft 440 kts 51°
2026-04-26 06:19 -36.62993 146.31763 35951 ft 441 kts 51°
2026-04-26 06:19 -36.61189 146.34831 36193 ft 442 kts 51°
2026-04-26 06:19 -36.59353 146.37947 36415 ft 443 kts 51°
2026-04-26 06:20 -36.57557 146.40996 36623 ft 444 kts 51°
2026-04-26 06:20 -36.55722 146.44107 36843 ft 445 kts 52°
2026-04-26 06:20 -36.53891 146.47206 37052 ft 445 kts 52°
2026-04-26 06:20 -36.52069 146.50290 37171 ft 447 kts 52°
2026-04-26 06:21 -36.50229 146.53398 37175 ft 447 kts 52°
2026-04-26 06:21 -36.46539 146.59634 37184 ft 447 kts 52°
2026-04-26 06:22 -36.42869 146.65820 37193 ft 446 kts 51°
2026-04-26 06:22 -36.39199 146.71992 37196 ft 445 kts 51°
2026-04-26 06:23 -36.35527 146.78157 37201 ft 444 kts 51°
2026-04-26 06:23 -36.31891 146.84251 37204 ft 443 kts 51°
2026-04-26 06:24 -36.28219 146.90393 37200 ft 443 kts 51°
2026-04-26 06:24 -36.24570 146.96487 37194 ft 442 kts 51°
2026-04-26 06:25 -36.20917 147.02576 37189 ft 441 kts 51°
2026-04-26 06:25 -36.17256 147.08667 37192 ft 441 kts 51°
2026-04-26 06:26 -36.13590 147.14758 37194 ft 442 kts 51°
2026-04-26 06:26 -36.09929 147.20827 37192 ft 442 kts 51°
2026-04-26 06:27 -36.06262 147.26898 37198 ft 442 kts 51°
2026-04-26 06:27 -36.02584 147.32973 37196 ft 443 kts 51°
2026-04-26 06:28 -35.98962 147.38943 37191 ft 444 kts 52°
2026-04-26 06:28 -35.95265 147.45033 37187 ft 444 kts 52°
2026-04-26 06:29 -35.91550 147.51141 37179 ft 444 kts 52°
2026-04-26 06:29 -35.87858 147.57193 37180 ft 444 kts 52°
2026-04-26 06:30 -35.84153 147.63263 37184 ft 444 kts 52°
2026-04-26 06:30 -35.80428 147.69353 37188 ft 445 kts 51°
2026-04-26 06:31 -35.76706 147.75426 37196 ft 445 kts 51°
2026-04-26 06:31 -35.73008 147.81451 37200 ft 444 kts 51°
2026-04-26 06:32 -35.69283 147.87509 37197 ft 444 kts 52°
2026-04-26 06:32 -35.65556 147.93565 37194 ft 444 kts 51°
2026-04-26 06:33 -35.61851 147.99568 37192 ft 444 kts 51°
2026-04-26 06:33 -35.58126 148.05589 37187 ft 444 kts 52°
2026-04-26 06:34 -35.54383 148.11633 37194 ft 445 kts 51°
2026-04-26 06:34 -35.50650 148.17650 37191 ft 445 kts 51°
2026-04-26 06:35 -35.46894 148.23691 37190 ft 445 kts 51°
2026-04-26 06:35 -35.43151 148.29704 37188 ft 445 kts 51°
2026-04-26 06:36 -35.39399 148.35722 37196 ft 445 kts 51°
2026-04-26 06:36 -35.35626 148.41763 37209 ft 446 kts 51°
2026-04-26 06:37 -35.31882 148.47749 37217 ft 446 kts 51°
2026-04-26 06:37 -35.28093 148.53792 37220 ft 446 kts 51°
2026-04-26 06:38 -35.24340 148.59770 37229 ft 447 kts 52°
2026-04-26 06:38 -35.20544 148.65805 37225 ft 447 kts 51°
2026-04-26 06:39 -35.16771 148.71793 37226 ft 448 kts 51°
2026-04-26 06:39 -35.12961 148.77830 37223 ft 448 kts 51°
2026-04-26 06:39 -35.11063 148.80833 36975 ft 449 kts 51°
2026-04-26 06:40 -35.09164 148.83835 36667 ft 446 kts 51°
2026-04-26 06:40 -35.07275 148.86819 36352 ft 443 kts 51°
2026-04-26 06:40 -35.05393 148.89789 36041 ft 441 kts 51°
2026-04-26 06:40 -35.03533 148.92722 35733 ft 442 kts 51°
2026-04-26 06:41 -35.01642 148.95699 35416 ft 444 kts 51°
2026-04-26 06:41 -34.99751 148.98675 35106 ft 446 kts 51°
2026-04-26 06:41 -34.97845 149.01671 34799 ft 447 kts 52°
2026-04-26 06:41 -34.95942 149.04663 34490 ft 448 kts 52°
2026-04-26 06:42 -34.94055 149.07626 34187 ft 449 kts 52°
2026-04-26 06:42 -34.92139 149.10632 33902 ft 450 kts 52°
2026-04-26 06:42 -34.90209 149.13660 33633 ft 450 kts 52°
2026-04-26 06:42 -34.88294 149.16661 33371 ft 450 kts 52°
2026-04-26 06:43 -34.86383 149.19652 33112 ft 450 kts 52°
2026-04-26 06:43 -34.84472 149.22641 32851 ft 449 kts 52°
2026-04-26 06:43 -34.82547 149.25650 32591 ft 449 kts 52°
2026-04-26 06:43 -34.80643 149.28619 32334 ft 448 kts 52°
2026-04-26 06:44 -34.78715 149.31624 32075 ft 448 kts 52°
2026-04-26 06:44 -34.76803 149.34608 31815 ft 448 kts 52°
2026-04-26 06:44 -34.74984 149.37643 31430 ft 448 kts 55°
2026-04-26 06:44 -34.73290 149.40823 30892 ft 448 kts 58°
2026-04-26 06:45 -34.72022 149.43494 30415 ft 447 kts 61°
2026-04-26 06:45 -34.70571 149.46803 29795 ft 446 kts 62°
2026-04-26 06:45 -34.69133 149.50110 29344 ft 439 kts 62°
2026-04-26 06:45 -34.67719 149.53363 28888 ft 436 kts 62°
2026-04-26 06:46 -34.66313 149.56592 28403 ft 432 kts 62°
2026-04-26 06:46 -34.64914 149.59799 27929 ft 428 kts 62°
2026-04-26 06:46 -34.63540 149.62941 27454 ft 425 kts 62°
2026-04-26 06:46 -34.62157 149.66101 26975 ft 421 kts 61°
2026-04-26 06:47 -34.60793 149.69212 26502 ft 418 kts 61°
2026-04-26 06:47 -34.59423 149.72334 26021 ft 414 kts 61°
2026-04-26 06:47 -34.58118 149.75307 25558 ft 411 kts 61°
2026-04-26 06:47 -34.56792 149.78323 25086 ft 407 kts 61°
2026-04-26 06:48 -34.55465 149.81339 24613 ft 404 kts 61°
2026-04-26 06:48 -34.54145 149.84334 24134 ft 400 kts 61°
2026-04-26 06:48 -34.52844 149.87286 23663 ft 397 kts 61°
2026-04-26 06:48 -34.51555 149.90207 23199 ft 394 kts 61°
2026-04-26 06:49 -34.50273 149.93112 22736 ft 391 kts 61°
2026-04-26 06:49 -34.49007 149.95978 22268 ft 387 kts 61°
2026-04-26 06:49 -34.47743 149.98836 21793 ft 385 kts 61°
2026-04-26 06:49 -34.46473 150.01708 21315 ft 382 kts 61°
2026-04-26 06:50 -34.45227 150.04520 20836 ft 379 kts 61°
2026-04-26 06:50 -34.43992 150.07304 20355 ft 377 kts 61°
2026-04-26 06:50 -34.42751 150.10101 19878 ft 374 kts 61°
2026-04-26 06:50 -34.41530 150.12848 19416 ft 371 kts 61°
2026-04-26 06:51 -34.40315 150.15584 18947 ft 369 kts 61°
2026-04-26 06:51 -34.37915 150.20975 18012 ft 364 kts 61°
2026-04-26 06:51 -34.36708 150.23683 17549 ft 362 kts 61°
2026-04-26 06:52 -34.35522 150.26341 17072 ft 360 kts 61°
2026-04-26 06:52 -34.34335 150.29002 16590 ft 358 kts 61°
2026-04-26 06:52 -34.33154 150.31647 16122 ft 356 kts 61°
2026-04-26 06:52 -34.31996 150.34238 15683 ft 353 kts 61°
2026-04-26 06:53 -34.30833 150.36836 15338 ft 346 kts 61°
2026-04-26 06:53 -34.29704 150.39360 14910 ft 342 kts 61°
2026-04-26 06:53 -34.28567 150.41899 14436 ft 340 kts 61°
2026-04-26 06:53 -34.27451 150.44394 13975 ft 337 kts 61°
2026-04-26 06:54 -34.26340 150.46883 13535 ft 335 kts 61°
2026-04-26 06:54 -34.25241 150.49342 13094 ft 333 kts 61°
2026-04-26 06:54 -34.24159 150.51761 12671 ft 331 kts 61°
2026-04-26 06:54 -34.23067 150.54198 12237 ft 329 kts 61°
2026-04-26 06:55 -34.21972 150.56644 11819 ft 327 kts 61°
2026-04-26 06:55 -34.20899 150.59038 11409 ft 325 kts 61°
2026-04-26 06:55 -34.19831 150.61415 10955 ft 323 kts 61°
2026-04-26 06:55 -34.18762 150.63796 10588 ft 319 kts 61°
2026-04-26 06:56 -34.17700 150.66159 10340 ft 320 kts 60°
2026-04-26 06:56 -34.16650 150.68495 10140 ft 320 kts 61°
2026-04-26 06:56 -34.15587 150.70857 9961 ft 320 kts 60°
2026-04-26 06:56 -34.14526 150.73215 9642 ft 319 kts 60°
2026-04-26 06:57 -34.13466 150.75571 9251 ft 317 kts 60°
2026-04-26 06:57 -34.12412 150.77905 8865 ft 315 kts 60°
2026-04-26 06:57 -34.11375 150.80200 8481 ft 313 kts 60°
2026-04-26 06:57 -34.10344 150.82484 8110 ft 311 kts 60°
2026-04-26 06:58 -34.09308 150.84786 7969 ft 309 kts 60°
2026-04-26 06:58 -34.08286 150.87058 7953 ft 310 kts 60°
2026-04-26 06:58 -34.07252 150.89355 7939 ft 311 kts 61°
2026-04-26 06:58 -34.06216 150.91653 7941 ft 311 kts 61°
2026-04-26 06:59 -34.05185 150.93941 7935 ft 311 kts 61°
2026-04-26 06:59 -34.04155 150.96225 7937 ft 311 kts 61°
2026-04-26 06:59 -34.03197 150.98558 7929 ft 311 kts 71°
2026-04-26 06:59 -34.03040 151.01131 7926 ft 313 kts 100°
2026-04-26 07:00 -34.03977 151.03507 7933 ft 316 kts 128°
2026-04-26 07:00 -34.05552 151.05345 7871 ft 317 kts 138°
2026-04-26 07:00 -34.07252 151.07027 7546 ft 315 kts 144°
2026-04-26 07:00 -34.09198 151.08157 7233 ft 315 kts 162°
2026-04-26 07:01 -34.11346 151.08720 6932 ft 314 kts 168°
2026-04-26 07:01 -34.13493 151.09199 6619 ft 312 kts 169°
2026-04-26 07:01 -34.15633 151.09698 6305 ft 312 kts 168°
2026-04-26 07:01 -34.17715 151.10213 5970 ft 302 kts 167°
2026-04-26 07:02 -34.19712 151.10724 5622 ft 284 kts 167°
2026-04-26 07:02 -34.21606 151.11211 5279 ft 275 kts 167°
2026-04-26 07:02 -34.23473 151.11691 4939 ft 275 kts 167°
2026-04-26 07:02 -34.25350 151.12177 4490 ft 273 kts 167°
2026-04-26 07:03 -34.27182 151.12650 4131 ft 270 kts 167°
2026-04-26 07:03 -34.29003 151.13121 3844 ft 265 kts 167°
2026-04-26 07:03 -34.30780 151.13687 3568 ft 260 kts 154°
2026-04-26 07:03 -34.32154 151.14987 3312 ft 251 kts 124°
2026-04-26 07:04 -34.32780 151.16876 3086 ft 239 kts 92°
2026-04-26 07:04 -34.32494 151.18777 2948 ft 222 kts 58°
2026-04-26 07:04 -34.31497 151.20120 2953 ft 217 kts 38°
2026-04-26 07:04 -34.30270 151.21216 2949 ft 218 kts 34°
2026-04-26 07:05 -34.29029 151.22241 2947 ft 217 kts 31°
2026-04-26 07:05 -34.27649 151.22980 2946 ft 217 kts 17°
2026-04-26 07:05 -34.26193 151.23459 2947 ft 217 kts 14°
2026-04-26 07:05 -34.24719 151.23895 2946 ft 217 kts 13°
2026-04-26 07:06 -34.23217 151.24232 2950 ft 223 kts
2026-04-26 07:06 -34.21650 151.24385 2948 ft 224 kts 359°
2026-04-26 07:06 -34.20103 151.24211 2949 ft 224 kts 351°
2026-04-26 07:06 -34.18576 151.23850 2950 ft 224 kts 348°
2026-04-26 07:07 -34.17049 151.23439 2950 ft 225 kts 348°
2026-04-26 07:07 -34.15499 151.23019 2953 ft 225 kts 348°
2026-04-26 07:07 -34.13963 151.22612 2954 ft 226 kts 348°
2026-04-26 07:07 -34.12442 151.22214 2951 ft 226 kts 348°
2026-04-26 07:08 -34.10847 151.21800 2812 ft 238 kts 349°
2026-04-26 07:08 -34.09227 151.21381 2512 ft 238 kts 349°
2026-04-26 07:08 -34.07611 151.20962 2199 ft 235 kts 349°
2026-04-26 07:08 -34.06004 151.20544 1890 ft 235 kts 349°
2026-04-26 07:09 -34.04416 151.20134 1582 ft 234 kts 349°
2026-04-26 07:09 -34.02826 151.19722 1276 ft 229 kts 350°
2026-04-26 07:09 -34.01320 151.19330 973 ft 208 kts 350°
2026-04-26 07:09 -33.99985 151.18982 764 ft 187 kts 350°
2026-04-26 07:10 -33.96711 151.18132 100 ft 133 kts 352°
2026-04-26 07:11 -33.95187 151.17743 28 ft 101 kts 349°
2026-04-26 07:11 -33.94276 151.17494 174 ft 154 kts 351°
2026-04-26 07:11 -33.93245 151.17217 1029 ft 154 kts 351°
2026-04-26 07:11 -33.92202 151.16936 1927 ft 160 kts 351°
2026-04-26 07:12 -33.91058 151.16650 2568 ft 179 kts 351°
2026-04-26 07:12 -33.89744 151.16350 2922 ft 209 kts 351°
2026-04-26 07:12 -33.88255 151.16034 2890 ft 217 kts 351°
2026-04-26 07:12 -33.86776 151.15727 2918 ft 217 kts 353°
2026-04-26 07:13 -33.85255 151.15729 2948 ft 217 kts
2026-04-26 07:13 -33.83751 151.16075 3295 ft 225 kts 12°
2026-04-26 07:13 -33.82235 151.16490 3766 ft 221 kts 13°
2026-04-26 07:13 -33.80736 151.16908 3952 ft 222 kts 13°
2026-04-26 07:14 -33.79230 151.17326 3959 ft 221 kts 13°
2026-04-26 07:14 -33.77720 151.17741 3965 ft 221 kts 13°
2026-04-26 07:14 -33.76217 151.18152 3966 ft 220 kts 13°
2026-04-26 07:14 -33.74719 151.18561 3961 ft 220 kts 13°
2026-04-26 07:15 -33.73219 151.18967 3962 ft 220 kts 13°
2026-04-26 07:15 -33.71746 151.19423 3955 ft 220 kts 23°
2026-04-26 07:15 -33.70562 151.20555 3948 ft 221 kts 56°
2026-04-26 07:15 -33.70099 151.22316 3955 ft 225 kts 89°
2026-04-26 07:16 -33.70527 151.24118 3954 ft 230 kts 122°
2026-04-26 07:16 -33.71695 151.25415 3962 ft 233 kts 147°
2026-04-26 07:16 -33.73138 151.26356 3960 ft 233 kts 152°
2026-04-26 07:16 -33.74594 151.27211 3957 ft 233 kts 153°
2026-04-26 07:17 -33.76070 151.28064 3954 ft 234 kts 153°
2026-04-26 07:17 -33.77546 151.28912 3952 ft 234 kts 153°
2026-04-26 07:17 -33.79002 151.29750 3951 ft 234 kts 153°
2026-04-26 07:17 -33.80473 151.30597 3957 ft 234 kts 153°
2026-04-26 07:18 -33.81943 151.31445 3957 ft 234 kts 153°
2026-04-26 07:18 -33.83423 151.32298 3969 ft 242 kts 153°
2026-04-26 07:18 -33.84975 151.33189 3970 ft 249 kts 153°
2026-04-26 07:18 -33.86553 151.34093 3965 ft 250 kts 153°
2026-04-26 07:19 -33.88173 151.34837 3953 ft 251 kts 166°
2026-04-26 07:19 -33.89916 151.35181 3959 ft 252 kts 172°
2026-04-26 07:19 -33.91647 151.35423 3960 ft 252 kts 173°
2026-04-26 07:19 -33.93385 151.35652 3960 ft 251 kts 173°
2026-04-26 07:20 -33.95143 151.35884 3965 ft 251 kts 173°
2026-04-26 07:20 -33.96872 151.36113 3965 ft 251 kts 173°
2026-04-26 07:20 -33.98615 151.36345 3961 ft 251 kts 173°
2026-04-26 07:20 -34.00363 151.36577 3960 ft 252 kts 173°
2026-04-26 07:21 -34.02107 151.36804 3962 ft 251 kts 173°
2026-04-26 07:21 -34.03837 151.37028 3962 ft 251 kts 173°
2026-04-26 07:21 -34.05577 151.37254 3870 ft 247 kts 173°
2026-04-26 07:21 -34.07250 151.37471 3715 ft 239 kts 173°
2026-04-26 07:22 -34.08905 151.37685 3491 ft 235 kts 173°
2026-04-26 07:22 -34.10519 151.37894 3202 ft 234 kts 173°
2026-04-26 07:22 -34.12144 151.38103 2895 ft 234 kts 173°
2026-04-26 07:22 -34.13760 151.38119 2584 ft 234 kts 194°
2026-04-26 07:23 -34.15145 151.37221 2400 ft 224 kts 228°
2026-04-26 07:23 -34.15897 151.35623 2145 ft 217 kts 256°
2026-04-26 07:23 -34.16239 151.33879 1964 ft 215 kts 262°
2026-04-26 07:23 -34.16512 151.32077 1957 ft 218 kts 263°
2026-04-26 07:24 -34.16769 151.30266 1954 ft 219 kts 263°
2026-04-26 07:24 -34.17005 151.28448 1950 ft 218 kts 269°
2026-04-26 07:24 -34.16737 151.26714 1931 ft 210 kts 304°
2026-04-26 07:24 -34.15794 151.25368 1963 ft 207 kts 320°
2026-04-26 07:25 -34.14651 151.24335 1955 ft 206 kts 335°
2026-04-26 07:25 -34.13331 151.23683 1957 ft 204 kts 345°
2026-04-26 07:25 -34.11946 151.23241 1954 ft 203 kts 349°
2026-04-26 07:25 -34.10571 151.22878 1952 ft 203 kts 350°
2026-04-26 07:26 -34.09186 151.22525 1951 ft 202 kts 350°
2026-04-26 07:26 -34.07830 151.22176 1936 ft 197 kts 350°
2026-04-26 07:26 -34.06482 151.21825 1881 ft 190 kts 350°
2026-04-26 07:26 -34.05258 151.21504 1712 ft 170 kts 351°
2026-04-26 07:27 -34.04139 151.21211 1449 ft 157 kts 351°
2026-04-26 07:27 -34.03117 151.20946 1212 ft 142 kts 351°
2026-04-26 07:27 -34.02198 151.20708 1002 ft 129 kts 352°
2026-04-26 07:27 -34.01324 151.20482 856 ft 128 kts 352°
2026-04-26 07:28 -34.00449 151.20245 721 ft 128 kts 351°
2026-04-26 07:28 -33.99575 151.20007 559 ft 128 kts 351°
2026-04-26 07:28 -33.98709 151.19792 378 ft 127 kts 352°
2026-04-26 07:28 -33.97837 151.19571 199 ft 126 kts 352°
2026-04-26 07:29 -33.96982 151.19351 38 ft 124 kts 352°
2026-04-26 07:29 -33.96256 151.19168 28 ft 81 kts 349°
2026-04-26 07:29 -33.95872 151.19064 28 ft 37 kts 348°
2026-04-26 07:29 -33.95631 151.19012 28 ft 33 kts 350°
2026-04-26 07:30 -33.95421 151.18932 28 ft 28 kts 335°
2026-04-26 07:30 -33.95259 151.18819 28 ft 26 kts 319°
2026-04-26 07:30 -33.95133 151.18684 28 ft 22 kts 317°
2026-04-26 07:30 -33.95090 151.18570 28 ft 9 kts 258°
2026-04-26 07:31 -33.95106 151.18472 28 ft 14 kts 259°
2026-04-26 07:31 -33.95131 151.18341 28 ft 17 kts 257°
2026-04-26 07:31 -33.95155 151.18205 28 ft 12 kts 258°
2026-04-26 07:31 -33.95162 151.18169 28 ft 0 kts 257°
2026-04-26 07:32 -33.95163 151.18164 28 ft 0 kts 258°
2026-04-26 07:33 -33.95166 151.18149 28 ft 7 kts 258°
2026-04-26 07:33 -33.95181 151.18056 28 ft 14 kts 259°
2026-04-26 07:33 -33.95132 151.17949 28 ft 16 kts 342°
2026-04-26 07:34 -33.95018 151.17926 28 ft 17 kts 353°
2026-04-26 07:34 -33.94896 151.17891 28 ft 18 kts 348°
2026-04-26 07:34 -33.94763 151.17859 28 ft 19 kts 348°
2026-04-26 07:34 -33.94637 151.17825 28 ft 16 kts 347°
2026-04-26 07:35 -33.94592 151.17813 28 ft 0 kts 347°
2026-04-26 07:35 -33.94585 151.17810 28 ft 1 kts 347°
2026-04-26 07:35 -33.94572 151.17807 28 ft 2 kts 347°
2026-04-26 07:35 -33.94536 151.17798 28 ft 7 kts 348°
2026-04-26 07:36 -33.94465 151.17778 28 ft 12 kts 346°
2026-04-26 07:36 -33.94363 151.17746 28 ft 17 kts 346°
2026-04-26 07:36 -33.94234 151.17706 28 ft 20 kts 346°
2026-04-26 07:36 -33.94088 151.17659 28 ft 22 kts 347°
2026-04-26 07:37 -33.93927 151.17621 28 ft 24 kts 346°
2026-04-26 07:37 -33.93775 151.17578 28 ft 21 kts 347°
2026-04-26 07:37 -33.93628 151.17543 28 ft 21 kts 349°
2026-04-26 07:37 -33.93515 151.17513 28 ft 14 kts 352°
2026-04-26 07:38 -33.93450 151.17574 28 ft 8 kts 64°
2026-04-26 07:38 -33.93456 151.17647 28 ft 9 kts 102°
2026-04-26 07:38 -33.93463 151.17697 28 ft 0 kts 99°